OBJECT C, 60237

Orbit data source: Space-Track

You're viewing an uncataloged RSO

Recently launched and/or uncataloged RSOs may have evolving metadata. Metadata may include the following, but is not limited to: Owner, Manufacturer, Bus, Motor, and Mission.

OBJECT C, 60237 is a satellite in LEO that was launched on Tue, 09 Jul 2024 UTC via an ARIANE 62 launch vehicle from the French Guiana (FRGUI). Unknown objects in Earth's orbit typically refer to objects detected orbiting the Earth but have not yet been identified or cataloged. These objects could be anything from previously untracked satellites, spent rocket stages, debris from satellite collisions, or even natural meteoroids temporarily captured by Earth's gravity.

Loading next visibility...
Identifier
60237, 2024-128C
Orbit
LEO
Country
Flag of TBDTBD
Related business
Manufacturer
TUKE/KONK
Mission
Operational Amateur Astronomy
Bus & Motor
CUBESAT 2U, Unknown motor
Mass
2 kg wet, 2 kg dry
Launch date (UTC)
2024-07-09 (2 years ago)
Launch vehicle
ARIANE 62
Launch site
French Guiana (FRGUI)
Object type
Unknown
Shape & HBR
Box, 0.1 m
Radar Cross Section
0.025 m², Medium (>0.1 m² and < 1m²)

Expand to show TLE details & history
Last TLE update: 19 hours ago

TLE from 19 hours ago
0 OBJECT C
1 60237U 24128C   26264.50164467  .00001972  00000-0  14373-3 0  9998
2 60237  61.9883 238.1920 0026483 155.8214 204.4129 15.07203742120780
Epoch: 2026-09-21T12:02Z
TLE epoch observation values (Epoch: 2026-09-21T12:02:22.099Z)
Latitude
Longitude
57.21936°
Altitude
563.228 km
Speed
7.571 km/s
True Right ascension
15h 52m 46s
True Declination
0° 00' 00"
Sunlit
Object was in daylight at epoch
Visualization orbit readout
Latitude
Unknown
Longitude
Unknown
Altitude
Unknown
Speed
Unknown
Apparent Right ascension
Unknown
Apparent Declination
Unknown
Sunlit
N/A
Visualization observer readout
Local Sidereal Time
00:05:06
Azimuth
Unknown
Elevation
Unknown
Doppler factor
Unknown
Orbital elements
Apogee altitude
562.009 km
Perigee altitude
525.347 km
Semi-major axis
6,921.815 km
Eccentricity
0.00265
Inclination
61.9883°
RAAN
238.192°
Arg. of periapsis
155.8214°
True anomaly
204.28785°
Mean anomaly
204.4129°
Eccentric anomaly
204.35034°
Mean motion
3.76889 °/min
Orbital period
95.52 mins
BSTAR
0.00014373
Loading maneuver chart data...
Computing Atmospheric mass density...
Loading historical data...
Loading historical data...
Loading historical data...
Loading historical data...
Loading historical data...
Loading historical data...
Loading historical data...

Documentation

Showing up to 5 results
|